Home > Weather > Mississauga > Past weeks

Flag for Canada Past Weather in Mississauga, Ontario, Canada — Yesterday and Last 2 Weeks

Now
68 °F

Passing clouds.


Feels Like: 68 °F
Forecast: 61 / 81 °F
Wind: 8 mph from North

Location: Toronto Pearson International Airport

Current Time: Aug 27, 2016 at 2:41:01 AM

Latest Report: Aug 27, 2016 at 2:00 AM


Visibility: 15 mi

Pressure: 30.16 "Hg

Humidity: 64%

Dew Point: 55 °F

Location of MississaugaLocation

Past Weather in Mississauga — Graph

°F

Mississauga Temperature Yesterday

Maximum temperature yesterday: 84 °F (at 3:00 PM)
Minimum temperature yesterday: 66 °F (at 7:00 AM)
Average temperature yesterday: 75 °F

High & Low Weather Summary for the Past Weeks

 TemperatureHumidityPressure
High95 °F (Aug 12, 3:00 PM)94% (Aug 13, 6:00 AM)30.25 "Hg (Aug 13, 6:00 AM)
Low57 °F (Aug 22, 6:00 AM)34% (Aug 22, 3:00 PM)29.56 "Hg (Aug 21, 5:00 AM)
Average75 °F70%29.96 "Hg
* Reported Aug 12 1:00 AM — Aug 27 1:00 AM, Mississauga, Weather by CustomWeather, © 2016

Note: Actual official high and low records may vary slightly from our data, if they occured in-between our weather recording intervals... More about our weather records

Advertising

Mississauga Weather History for the Previous 24 Hours

Scroll right to see more
 ConditionsComfort  
Time TempWeatherWind HumidityBarometerVisibility
1:00 AM
Sat, Aug 27
68 °FPassing clouds.9 mph73%30.16 "Hg15 mi
12:00 AM70 °FPassing clouds.9 mph73%30.16 "Hg15 mi
11:00 PM
Fri, Aug 26
70 °FPassing clouds.12 mph73%30.15 "Hg15 mi
10:00 PM72 °FClear.14 mph65%30.14 "Hg15 mi
9:00 PM75 °FPassing clouds.17 mph61%30.11 "Hg15 mi
8:00 PM79 °FScattered clouds.10 mph48%30.09 "Hg15 mi
7:00 PM81 °FPassing clouds.13 mph45%30.07 "Hg15 mi
6:00 PM82 °FPassing clouds.16 mph40%30.06 "Hg15 mi
5:00 PM84 °FPassing clouds.13 mph40%30.06 "Hg15 mi
4:00 PM84 °FPassing clouds.15 mph43%30.05 "Hg15 mi
3:00 PM84 °FPassing clouds.15 mph48%30.06 "Hg15 mi
2:00 PM82 °FScattered clouds.15 mph51%30.07 "Hg15 mi
1:00 PM81 °FScattered clouds.13 mph51%30.07 "Hg15 mi
12:00 PM79 °FPartly sunny.6 mph58%30.09 "Hg15 mi
11:00 AM77 °FScattered clouds.6 mph61%30.07 "Hg15 mi
10:00 AM75 °FPassing clouds.5 mph65%30.07 "Hg15 mi
9:00 AM73 °FPassing clouds.5 mph69%30.06 "Hg15 mi
8:00 AM70 °FPassing clouds.5 mph88%30.06 "Hg15 mi
7:00 AM66 °FPassing clouds.5 mph94%30.04 "Hg15 mi
6:00 AM68 °FPassing clouds.5 mph88%30.03 "Hg15 mi
5:00 AM70 °FPassing clouds.6 mph83%30.01 "Hg15 mi
4:00 AM70 °FPassing clouds.6 mph88%29.98 "Hg15 mi
3:00 AM70 °FClear.9 mph88%29.97 "Hg15 mi
2:00 AM72 °FClear.7 mph88%29.95 "Hg15 mi
Weather by CustomWeather, © 2016

See weather overviewHow to use our weather pages